Preview of NWS' New Version of Forecast
This preview is not operational and should not be used for support decisions.

Regional Weather Roundup (RWR)

Issued by National Weather Service (NWS)

                            
000
ASUS46 KSEW 162210
RWRWA 

WASHINGTON REGIONAL WEATHER ROUNDUP
NATIONAL WEATHER SERVICE SEATTLE WA
300 PM PDT TUE JUL 16 2019

NOTE:"FAIR" INDICATES FEW OR NO CLOUDS BELOW 12,000 FEET WITH NO 
SIGNIFICANT WEATHER AND/OR OBSTRUCTIONS TO VISIBILITY.

WAZ507-509-555>559-162300-
SEATTLE, TACOMA, EVERETT, AND VICINITY
  
CITY           SKY/WX    TMP DP  RH WIND       PRES   REMARKS
EVERETT        SUNNY     74  53  48 W9        30.00F                  
BOEING FIELD   SUNNY     78  53  41 MISG      29.97F                  
RENTON         MOSUNNY   79  58  48 N6        29.97F                  
SEATAC AIRPORT MOSUNNY   77  56  48 SW8       29.99F                  
JBLM-MCCHORD   MOSUNNY   77  61  58 NW3       29.99F                  
PUYALLUP       FAIR      79  59  50 CALM      30.00F                  
BREMERTON      SUNNY     78  55  44 VRB7      29.98F                  
JBLM-FT LEWIS  NOT AVBL                                               
TACOMA NARROWS MOSUNNY   73  54  51 SE8       29.99F                  
$$
 
WAZ001-503-506-510-514-515-162300-
NORTH INTERIOR
  
CITY           SKY/WX    TMP DP  RH WIND       PRES   REMARKS
BELLINGHAM     MOSUNNY   72  55  55 S9        29.98F                  
FRIDAY HARBOR  MOSUNNY   69  56  62 W8        30.00F                  
EASTSOUND      MOSUNNY   73  55  53 S8        29.97F                  
PORT ANGELES   MOSUNNY   68  56  65 NW8       30.01F                  
EDIZ HOOK      MOCLDY    61  55  82 W10       30.01S                  
PORT TOWNSEND  FAIR      73  59  60 SW9       29.98F                  
NAS WHIDBEY    PTSUNNY   64  55  72 W7        30.04F                  
ARLINGTON      PTSUNNY   78  55  44 VRB6      29.98F                  
BURLINGTON     SUNNY     79  57  47 VRB5      29.98F                  
$$
 
WAZ020-022-039-040-504-511-512-162300-
SOUTHWEST INTERIOR
  
CITY           SKY/WX    TMP DP  RH WIND       PRES   REMARKS
SHELTON        MOSUNNY   78  53  41 W8        29.96F                  
OLYMPIA        PTSUNNY   75  54  47 CALM      29.99F                  
CHEHALIS       PTSUNNY   73  63  68 W7        30.00F                  
KELSO          MOSUNNY   77  59  53 W5        29.99F                  
VANCOUVER      SUNNY     79  53  40 VRB3      29.97F                  
SCAPPOOSE, OR  CLOUDY    74  58  57 VRB3      29.97F                  
PORTLAND, OR   MOSUNNY   80  54  40 NE5       29.98F                  
$$
 
WAZ021-516-517-162300-
WASHINGTON COAST
  
CITY           SKY/WX    TMP DP  RH WIND       PRES   REMARKS
FORKS          PTSUNNY   69  58  67 SW10      30.02S                  
HOQUIAM        MOSUNNY   71  61  70 W10       30.03F                  
ASTORIA, OR    PTSUNNY   69  59  70 W13       30.04S                  
$$
 
WAZ019-023-024-040-567>569-162300-
CASCADE MOUNTAINS AND COLUMBIA GORGE
  
CITY           SKY/WX    TMP DP  RH WIND       PRES   REMARKS
STAMPEDE PASS  CLOUDY    63  49  60 VRB5      30.07S                  
TROUTDALE, OR  SUNNY     81  55  40 VRB5      29.97F                  
HOOD RIVER, OR CLEAR     79  50  36 W9G17     29.96S                  
THE DALLES, OR SUNNY     82  50  32 NW22G30   29.90F                  
$$

WAZ026-027-041>044-520-521-162300-
EAST SLOPES
  
CITY           SKY/WX    TMP DP  RH WIND       PRES   REMARKS
OMAK           MOSUNNY   81  47  30 CALM      29.88F                  
WENATCHEE      MOSUNNY   77  47  34 SW10      29.89F                  
ELLENSBURG     LGT RAIN  73  54  51 NW12      29.93F                  
YAKIMA         MOSUNNY   83  47  28 N7        29.90F                  
SUNNYSIDE ARPT CLEAR     83  52  34 NW3       29.89                   
YAKIMA TC      MOCLDY    80  46  30 N8        29.90F                  
$$

WAZ028-034-035-162300-
COLUMBIA BASIN
  
CITY           SKY/WX    TMP DP  RH WIND       PRES   REMARKS
EPHRATA        LGT RAIN  75  51  43 NW16      29.91S                  
MOSES LAKE     MOSUNNY   84  50  30 VRB6      29.90F                  
PASCO          SUNNY     85  49  28 S6        29.88F                  
RICHLAND ARPT  CLEAR     87  50  27 SW3       29.87F                  
HERMISTON, OR  SUNNY     86  50  28 W9G18     29.88F                  
$$

WAZ036>038-162300-
NORTHEAST WASHINGTON
  
CITY           SKY/WX    TMP DP  RH WIND       PRES   REMARKS
SPOKANE GEIGER PTSUNNY   69  53  56 SE8       29.95F                  
SPOKANE FELTS  PTSUNNY   74  51  44 SE9       29.95F                  
FAIRCHILD AFB  PTSUNNY   70  52  53 E8        29.95F                  
COEURDALENE,ID CLOUDY    72  52  49 SW6       29.97F                  
DEER PARK      PTSUNNY   71  53  52 SE10      29.95F                  
$$

WAZ029>033-162300-
SOUTHEAST WASHINGTON
  
CITY           SKY/WX    TMP DP  RH WIND       PRES   REMARKS
PULLMAN        PTSUNNY   75  49  39 VRB6      29.98F                  
LEWISTON, ID   PTSUNNY   81  50  33 N8        29.92F                  
WALLA WALLA    SUNNY     82  47  29 SW10      29.92F                  
PENDLETON, OR  MOSUNNY   84  50  30 W7G17     29.92F                  
$$